Flag Weather past 2 weeks in Moreno Valley, California, U.S.A.

Now
68 °F

Clear.


Feels Like: 68 °F
Forecast: 45 / 73 °F
Wind: 9 mph from Northeast

Location: Riverside / March Air Force Base

Current Time: Nov 24, 2014 at 6:07:16 PM

Latest Report: Nov 24, 2014 at 4:58 PM


Visibility: 10 mi

Pressure: 30.23 "Hg

Humidity: 11%

Dew point: 12 °F

Location of Moreno ValleyLocation

Historic Weather in Moreno Valley — Graph

°F

Moreno Valley temperature yesterday

Maximum temperature yesterday: 74 °F (at 12:58 PM)
Minimum temperature yesterday: 46 °F (at 12:58 AM)
Average temperature yesterday: 58 °F

Past Weeks' High & Low Weather Summary

 TemperatureHumidityPressure
High76 °F (Nov 18, 12:58 PM)100% (Nov 10, 4:58 AM)30.25 "Hg (Nov 10, 4:58 AM)
Low39 °F (Nov 19, 3:58 AM)5% (Nov 16, 1:58 PM)29.81 "Hg (Nov 9, 4:58 PM)
Average58 °F58%30.04 "Hg
* Reported Nov 9 4:58 PM — Nov 24 4:58 PM, Moreno Valley, Weather by CustomWeather, © 2014

Note: Actual official high and low records may vary slightly from our data, if they occured in-between our weather recording intervals... More about our weather records

Advertising

Moreno Valley weather history for previous 24 hours

 ConditionsComfort  
Time TempWeatherWind HumidityBarometerVisibility
4:58 PM
Nov 24
68 °FClear.9 mph11%30.23 "Hg10 mi
3:58 PM72 °FSunny.10 mph9%30.21 "Hg10 mi
2:58 PM73 °FSunny.2 mph8%30.21 "Hg10 mi
1:58 PM74 °FSunny.6 mph8%30.19 "Hg10 mi
12:58 PM74 °FScattered clouds.8 mph7%30.20 "Hg10 mi
11:58 AM72 °FSunny.2 mph8%30.23 "Hg10 mi
10:58 AM71 °FPartly sunny.5 mph8%30.24 "Hg10 mi
9:58 AM72 °FPartly sunny.7 mph7%30.25 "Hg10 mi
8:58 AM66 °FSunny.8 mph11%30.23 "Hg10 mi
7:58 AM58 °FSunny.7 mph15%30.23 "Hg10 mi
6:58 AM44 °FSunny.3 mph27%30.22 "Hg9 mi
5:58 AM42 °FClear.1 mph28%30.19 "Hg10 mi
4:58 AM46 °FClear.No wind24%30.16 "Hg10 mi
3:58 AM42 °FClear.2 mph29%30.16 "Hg10 mi
2:58 AM41 °FClear.3 mph30%30.16 "Hg10 mi
1:58 AM44 °FClear.3 mph28%30.17 "Hg10 mi
12:58 AM45 °FClear.1 mph25%30.17 "Hg10 mi
11:58 PM
Nov 23
46 °FClear.2 mph26%30.18 "Hg10 mi
10:58 PM47 °FClear.No wind23%30.17 "Hg10 mi
9:58 PM53 °FClear.No wind19%30.17 "Hg10 mi
8:58 PM55 °FClear.3 mph17%30.16 "Hg10 mi
7:58 PM53 °FClear.No wind17%30.17 "Hg10 mi
6:58 PM55 °FClear.2 mph15%30.16 "Hg10 mi
Weather by CustomWeather, © 2014

See weather overviewHow to use our weather pages